Location: Unspecified
(0.0000°N, 0.0000°E)
Time: 04:56:12
(UTC+00:00)

Vanguard 3 - Pass Details

Date: 12 April 2021
Orbit: 507 x 3262 km, 33.4° (Epoch: 17 May)

Event Time Altitude Azimuth Distance (km) Brightness Sun altitude
Rises 18:29:51 0° 227° (SW) 7,170 12.6 -7.2°
Reaches altitude 10° 18:38:53 10° 206° (SSW) 5,820 11.7 -9.4°
Maximum altitude 18:47:03 15° 178° (S) 4,909 11.0 -11.4°
Drops below altitude 10° 18:53:48 10° 148° (SSE) 4,713 10.7 -13.1°
Enters shadow 18:56:49 - 136° (SE) 4,860 10.6 -13.9°
